Manchester, NH

2:53 AM EST on November 20, 2017 (GMT -0500)
Manchester

Weather History for KMHT - February, 2014

Change the Weather History Date:

Saturday, February 22, 2014

  Actual Average Record
Temperature  
Mean Temperature 38 °F 30 °F  
Max Temperature 50 °F 39 °F 71 °F (1997)
Min Temperature 27 °F 21 °F -9 °F (1968)
Degree Days  
Heating Degree Days 26 35  
Month to date heating degree days 832  
Since 1 July heating degree days 4458  
Cooling Degree Days 0 0  
Month to date cooling degree days 0  
Year to date cooling degree days 0  
Moisture  
Dew Point 25 °F    
Average Humidity 66    
Maximum Humidity 96    
Minimum Humidity 31    
Precipitation  
Precipitation 0.00 in 0.11 in 1.63 in (1996)
Month to date precipitation 2.10  
Year to date precipitation 5.12  
Snow  
Snow 0.00 in - - ()
Month to date snowfall  
Since 1 July snowfall  
Snow Depth 11.00 in    
Sea Level Pressure  
Sea Level Pressure 29.91 in    
Wind  
Wind Speed 6 mph (SSW)    
Max Wind Speed 18 mph    
Max Gust Speed 26 mph    
Visibility 9 miles    
Events      
T = Trace of Precipitation, MM = Missing Value Source: NWS Daily Summary

Daily Weather History Graph

Daily Weather History Graph

Search for Another Location

Airport or City:

Trip Planner

Search our weather history database for the weather conditions in past years. The results will help you decide how hot, cold, wet, or windy it might be!

Date:

Astronomy

Feb. 22, 2014 Rise Set
Actual Time 6:32 AM EST 5:26 PM EST
Civil Twilight 6:04 AM EST 5:55 PM EST
Nautical Twilight 5:31 AM EST 6:27 PM EST
Astronomical Twilight 4:58 AM EST 7:00 PM EST
Moon 12:28 AM EST (2/22) 10:30 AM EST (2/22)
Length of Visible Light 11h 50m
Length of Day
10h 53m
Waning Gibbous, 50% of the Moon is Illuminated
Feb 22
Waning Gibbous
Feb 22
Last Quarter
Mar 1
New
Mar 8
First Quarter
Mar 16
Full

Hourly Weather History & Observations

Time (EST) Temp. Windchill Dew Point Humidity Pressure Visibility Wind Dir Wind Speed Gust Speed Precip Events Conditions
12:53 AM 32.0 °F 28.7 °F 30.9 °F 96% 29.87 in 8.0 mi SSW 3.5 mph - N/A   Clear
1:35 AM 30.0 °F 26.5 °F 28.9 °F 96% 29.83 in 2.5 mi South 3.5 mph - N/A   Partly Cloudy
1:53 AM 28.9 °F 23.9 °F 28.0 °F 96% 29.89 in 3.0 mi SSE 4.6 mph - N/A   Partly Cloudy
2:53 AM 30.0 °F 26.5 °F 28.9 °F 96% 29.90 in 9.0 mi South 3.5 mph - N/A   Clear
3:53 AM 27.0 °F 23.0 °F 26.1 °F 96% 29.91 in 7.0 mi SSE 3.5 mph - N/A   Clear
4:53 AM 28.0 °F 22.8 °F 26.1 °F 92% 29.92 in 7.0 mi South 4.6 mph - N/A   Clear
5:53 AM 28.9 °F 25.2 °F 28.0 °F 96% 29.94 in 10.0 mi SSW 3.5 mph - N/A   Clear
6:53 AM 28.9 °F 25.2 °F 28.0 °F 96% 29.95 in 10.0 mi SSW 3.5 mph - N/A   Partly Cloudy
7:53 AM 32.0 °F 25.6 °F 30.0 °F 92% 29.96 in 10.0 mi South 6.9 mph - N/A   Partly Cloudy
8:53 AM 35.1 °F 31.0 °F 32.0 °F 89% 29.96 in 10.0 mi Variable 4.6 mph - N/A   Partly Cloudy
9:53 AM 39.0 °F 32.3 °F 32.0 °F 76% 29.95 in 10.0 mi South 10.4 mph - N/A   Partly Cloudy
10:53 AM 43.0 °F 36.8 °F 30.9 °F 62% 29.94 in 10.0 mi South 11.5 mph - N/A   Clear
11:53 AM 46.0 °F 40.2 °F 26.1 °F 46% 29.90 in 10.0 mi SSW 12.7 mph 23.0 mph N/A   Clear
12:53 PM 48.9 °F - 21.9 °F 35% 29.88 in 10.0 mi SSW 15.0 mph 23.0 mph N/A   Scattered Clouds
1:53 PM 50.0 °F - 19.9 °F 31% 29.85 in 10.0 mi WSW 18.4 mph 26.5 mph N/A   Partly Cloudy
2:53 PM 50.0 °F - 19.9 °F 31% 29.85 in 10.0 mi SW 13.8 mph 26.5 mph N/A   Scattered Clouds
3:53 PM 48.9 °F - 19.9 °F 32% 29.85 in 10.0 mi SW 13.8 mph 24.2 mph N/A   Mostly Cloudy
4:53 PM 48.9 °F - 21.0 °F 33% 29.86 in 10.0 mi SSW 9.2 mph - N/A   Mostly Cloudy
5:53 PM 46.9 °F - 21.0 °F 36% 29.88 in 10.0 mi SSW 6.9 mph - N/A   Partly Cloudy
6:53 PM 43.0 °F 38.8 °F 21.9 °F 43% 29.90 in 10.0 mi South 6.9 mph - N/A   Partly Cloudy
7:53 PM 41.0 °F 36.4 °F 23.0 °F 49% 29.91 in 10.0 mi South 6.9 mph - N/A   Partly Cloudy
8:53 PM 39.0 °F 34.0 °F 23.0 °F 53% 29.93 in 10.0 mi South 6.9 mph - N/A   Partly Cloudy
9:53 PM 37.9 °F 33.5 °F 21.9 °F 53% 29.93 in 10.0 mi SSW 5.8 mph - N/A   Partly Cloudy
10:53 PM 37.0 °F 32.4 °F 23.0 °F 57% 29.94 in 10.0 mi SSW 5.8 mph - N/A   Clear
11:53 PM 35.1 °F 30.1 °F 21.9 °F 59% 29.97 in 10.0 mi SSW 5.8 mph - N/A   Clear